Flag for Germany Weather past 2 weeks in Fürth, Bavaria, Germany

Now
39 °F

Passing clouds.


Feels Like: 34 °F
Forecast: 39 / 51 °F
Wind: 8 mph from West

Location: Nuernberg

Current Time: Mar 30, 2015 at 10:22:19 PM

Latest Report: Mar 30, 2015 at 9:50 PM


Visibility: N/A

Pressure: 29.89 "Hg

Humidity: 70%

Dew point: 30 °F

Location of FürthLocation

Historic Weather in Fürth — Graph

°F

Fürth temperature yesterday

Maximum temperature yesterday: 52 °F (at 9:50 AM)
Minimum temperature yesterday: 45 °F (at 12:20 AM)
Average temperature yesterday: 49 °F

Past Weeks' High & Low Weather Summary

 TemperatureHumidityPressure
High64 °F (Mar 17, 2:50 PM)100% (Mar 24, 5:20 AM)30.27 "Hg (Mar 24, 5:20 AM)
Low27 °F (Mar 21, 2:20 AM)21% (Mar 20, 4:20 PM)29.42 "Hg (Mar 29, 11:50 PM)
Average45 °F68%29.99 "Hg
* Reported Mar 15 8:20 PM — Mar 30 9:20 PM, Fürth, Weather by CustomWeather, © 2015

Note: Actual official high and low records may vary slightly from our data, if they occured in-between our weather recording intervals... More about our weather records

Advertising

Fürth weather history for previous 24 hours

 ConditionsComfort  
Time TempWeatherWind HumidityBarometerVisibility
9:20 PM
Mon, Mar 30
41 °FPassing clouds.9 mph66%29.89 "HgN/A
8:50 PM41 °FPassing clouds.10 mph66%29.86 "HgN/A
8:20 PM41 °FScattered clouds.12 mph66%29.86 "HgN/A
7:50 PM41 °FScattered clouds.17 mph66%29.83 "HgN/A
7:20 PM43 °FScattered showers. Broken clouds.17 mph61%29.80 "HgN/A
6:50 PM43 °FSprinkles. Broken clouds.23 mph53%29.80 "HgN/A
6:20 PM45 °FScattered showers. Partly sunny.20 mph57%29.77 "HgN/A
5:50 PM45 °FScattered clouds.25 mph61%29.74 "HgN/A
5:20 PM46 °FScattered showers. Partly sunny.17 mph62%29.74 "HgN/A
4:50 PM46 °FSprinkles. Partly sunny.16 mph53%29.71 "HgN/A
4:20 PM46 °FSprinkles. Broken clouds.29 mph57%29.68 "HgN/A
3:50 PM48 °FScattered clouds.24 mph50%29.68 "HgN/A
3:20 PM46 °FScattered showers. Partly sunny.24 mph57%29.68 "HgN/A
2:50 PM50 °FScattered showers. Scattered clouds.25 mph50%29.65 "HgN/A
2:20 PM48 °FScattered showers. Scattered clouds.23 mph62%29.62 "HgN/A
1:50 PM46 °FScattered showers. Scattered clouds.10 mph71%29.65 "HgN/A
1:20 PM43 °FScattered showers. Scattered clouds.25 mph66%29.62 "HgN/A
12:50 PM48 °FScattered clouds.23 mph50%29.59 "HgN/A
12:20 PM46 °FBroken clouds.18 mph66%29.59 "HgN/A
11:50 AM45 °FScattered showers. Broken clouds.20 mph66%29.59 "HgN/A
11:20 AM45 °FScattered showers. Broken clouds.18 mph66%29.59 "HgN/A
10:50 AM45 °FBroken clouds.20 mph76%29.56 "HgN/A
10:20 AM45 °FLight rain. Broken clouds.13 mph76%29.56 "HgN/A
9:50 AM43 °FLight rain. Broken clouds.13 mph81%29.53 "HgN/A
9:20 AM43 °FLight rain. Partly sunny.14 mph87%29.53 "HgN/A
8:50 AM43 °FPartly sunny.14 mph87%29.50 "HgN/A
8:20 AM43 °FBroken clouds.16 mph87%29.50 "HgN/A
7:50 AM45 °FPartly cloudy.13 mph87%29.47 "HgN/A
7:20 AM43 °FPassing clouds.12 mph93%29.47 "HgN/A
6:50 AM41 °FPassing clouds.8 mph93%29.47 "HgN/A
6:20 AM41 °FLight rain. Partly cloudy.8 mph93%29.47 "HgN/A
5:50 AM41 °FLight rain. Passing clouds.17 mph93%29.47 "HgN/A
5:20 AM43 °FLight rain. Partly cloudy.20 mph81%29.47 "HgN/A
4:50 AM45 °FClear.16 mph76%29.47 "Hg10 mi
4:20 AM45 °FClear.15 mph81%29.47 "Hg10 mi
3:50 AM45 °FPassing clouds.13 mph81%29.47 "HgN/A
3:20 AM45 °FLight rain. Passing clouds.13 mph81%29.47 "HgN/A
2:50 AM45 °FLight rain. Passing clouds.14 mph87%29.47 "HgN/A
2:20 AM45 °FLight rain. Passing clouds.17 mph81%29.47 "HgN/A
1:50 AM45 °FLight rain. Partly cloudy.21 mph81%29.47 "HgN/A
1:20 AM50 °FLight rain. Passing clouds.28 mph82%29.45 "HgN/A
12:50 AM50 °FLight rain. Passing clouds.22 mph82%29.42 "HgN/A
12:20 AM50 °FCool.22 mph82%29.42 "HgN/A
11:50 PM
Sun, Mar 29
50 °FLight rain. Partly cloudy.20 mph82%29.42 "HgN/A
11:20 PM52 °FPassing clouds.21 mph77%29.45 "HgN/A
10:50 PM50 °FPassing clouds.22 mph82%29.45 "HgN/A
10:20 PM50 °FLight rain. Partly cloudy.21 mph82%29.45 "HgN/A
Weather by CustomWeather, © 2015

See weather overviewHow to use our weather pages